Location: Lugrin
(46.4033°N, 6.6674°E)
Time: 17:07:03
(UTC+00:00)

Cosmos 1437 - Pass Details

Date: 18 September 2020
Orbit: 365 x 369 km, 81.2° (Epoch: 28 October)

Event Time Altitude Azimuth Distance (km) Brightness Sun altitude
Rises 18:08:42 0° 354° (N) 2,257 6.7 -6.1°
Reaches altitude 10° 18:10:45 10° 0° (N) 1,400 5.5 -6.4°
Maximum altitude 18:13:41 46° 76° (ENE) 517 2.8 -6.9°
Drops below altitude 10° 18:16:36 10° 152° (SSE) 1,387 5.0 -7.4°
Sets 18:18:30 0° 158° (SSE) 2,181 6.1 -7.7°
